BSAT-3A

Last updated on Fri Apr 25 2025 00:02:38 GMT+0000 (Coordinated Universal Time)

1 32019U 07036B 25113.84398931 -.00000284 00000+0 00000+0 0 9991 2 32019 0.5693 103.8289 0001299 61.7101 126.4339 0.99142669 46316
UTC large
Height (km)
Speed (km/s)
/
Latitude / Longitude
Inclination (degrees)
Orbital Period (minutes)
Azimuth
Elevation
Range (km)
Doppler Factor

Next 0 passes for location: London (51.5072 / 0.1276)

Sorry there are no passes over London.